contact:dominique.lefevre@mio.osupytheas.fr, maurice.libes@osupytheas.fr, didier.mallarino@osupytheas.fr
Project:EMSO http://www.emso-fr.org/EMSO-France
Depth: 2436.0 m
Title:EMSO Ligure Ouest : Data MII capteur MICROCAT
DateTime_Computer,Latitude,Longitude,Temperature,Conductivity,Pressure,DateTime_Instrument
DateTime_Computer,Latitude,Longitude,degC,S m-1,dbar,DateTime_Instrument
2021-06-24T00:02:46Z,42.805,6.029,13.3001,4.60033,2470.437,2021-6-24T02:04:00Z
2021-06-24T00:05:49Z,42.805,6.029,13.3004,4.60031,2470.413,2021-6-24T02:07:03Z
2021-06-24T00:08:52Z,42.805,6.029,13.3001,4.60028,2470.437,2021-6-24T02:10:07Z
2021-06-24T00:11:56Z,42.805,6.029,13.2998,4.60026,2470.427,2021-6-24T02:13:10Z
2021-06-24T00:14:59Z,42.805,6.029,13.3004,4.60023,2470.45,2021-6-24T02:16:13Z
2021-06-24T00:18:02Z,42.805,6.029,13.3005,4.60031,2470.437,2021-6-24T02:19:16Z
2021-06-24T00:21:05Z,42.805,6.029,13.3000,4.60021,2470.413,2021-6-24T02:22:19Z
2021-06-24T00:24:08Z,42.805,6.029,13.3000,4.60035,2470.366,2021-6-24T02:25:22Z
2021-06-24T00:27:11Z,42.805,6.029,13.3004,4.60044,2470.39,2021-6-24T02:28:25Z
2021-06-24T00:30:14Z,42.805,6.029,13.3006,4.60049,2470.427,2021-6-24T02:31:28Z
2021-06-24T00:33:17Z,42.805,6.029,13.3006,4.60026,2470.39,2021-6-24T02:34:32Z
2021-06-24T00:36:20Z,42.805,6.029,13.3006,4.60045,2470.404,2021-6-24T02:37:35Z
2021-06-24T00:39:24Z,42.805,6.029,13.3007,4.60026,2470.39,2021-6-24T02:40:38Z
2021-06-24T00:42:27Z,42.805,6.029,13.3000,4.60026,2470.437,2021-6-24T02:43:41Z
2021-06-24T00:45:30Z,42.805,6.029,13.2997,4.60024,2470.413,2021-6-24T02:46:44Z
2021-06-24T00:48:33Z,42.805,6.029,13.3000,4.60024,2470.413,2021-6-24T02:49:47Z
2021-06-24T00:51:36Z,42.805,6.029,13.3002,4.60024,2470.39,2021-6-24T02:52:50Z
2021-06-24T00:54:39Z,42.805,6.029,13.3001,4.60037,2470.39,2021-6-24T02:55:53Z
2021-06-24T00:57:42Z,42.805,6.029,13.3004,4.60035,2470.404,2021-6-24T02:58:57Z
2021-06-24T01:00:45Z,42.805,6.029,13.3006,4.60053,2470.413,2021-6-24T03:02:00Z
2021-06-24T01:03:49Z,42.805,6.029,13.2998,4.60026,2470.39,2021-6-24T03:05:03Z
2021-06-24T01:06:52Z,42.805,6.029,13.3000,4.60021,2470.38,2021-6-24T03:08:06Z
2021-06-24T01:09:55Z,42.805,6.029,13.3003,4.60034,2470.366,2021-6-24T03:11:09Z
2021-06-24T01:12:58Z,42.805,6.029,13.3000,4.60019,2470.404,2021-6-24T03:14:12Z
2021-06-24T01:16:01Z,42.805,6.029,13.2999,4.60017,2470.39,2021-6-24T03:17:15Z
2021-06-24T01:19:04Z,42.805,6.029,13.2996,4.60024,2470.404,2021-6-24T03:20:18Z
2021-06-24T01:22:07Z,42.805,6.029,13.2997,4.60024,2470.404,2021-6-24T03:23:22Z
2021-06-24T01:25:10Z,42.805,6.029,13.3000,4.60031,2470.38,2021-6-24T03:26:25Z
2021-06-24T01:28:14Z,42.805,6.029,13.3004,4.60033,2470.39,2021-6-24T03:29:28Z
2021-06-24T01:31:17Z,42.805,6.029,13.3004,4.60038,2470.404,2021-6-24T03:32:31Z
2021-06-24T01:34:20Z,42.805,6.029,13.3007,4.60046,2470.38,2021-6-24T03:35:34Z
2021-06-24T01:37:23Z,42.805,6.029,13.2998,4.60026,2470.413,2021-6-24T03:38:37Z
2021-06-24T01:40:26Z,42.805,6.029,13.2998,4.60025,2470.427,2021-6-24T03:41:40Z
2021-06-24T01:43:29Z,42.805,6.029,13.2996,4.60021,2470.39,2021-6-24T03:44:43Z
2021-06-24T01:46:32Z,42.805,6.029,13.3005,4.60026,2470.413,2021-6-24T03:47:47Z
2021-06-24T01:49:35Z,42.805,6.029,13.2998,4.60039,2470.39,2021-6-24T03:50:50Z
2021-06-24T01:52:39Z,42.805,6.029,13.2997,4.60032,2470.39,2021-6-24T03:53:53Z
2021-06-24T01:55:42Z,42.805,6.029,13.2996,4.60032,2470.437,2021-6-24T03:56:56Z
2021-06-24T01:58:45Z,42.805,6.029,13.2998,4.60016,2470.39,2021-6-24T03:59:59Z
2021-06-24T02:01:48Z,42.805,6.029,13.2998,4.60020,2470.413,2021-6-24T04:03:02Z
2021-06-24T02:04:51Z,42.805,6.029,13.2998,4.60022,2470.413,2021-6-24T04:06:05Z
2021-06-24T02:07:54Z,42.805,6.029,13.3000,4.60016,2470.413,2021-6-24T04:09:08Z
2021-06-24T02:10:57Z,42.805,6.029,13.3000,4.60049,2470.366,2021-6-24T04:12:12Z
2021-06-24T02:14:00Z,42.805,6.029,13.3005,4.60038,2470.427,2021-6-24T04:15:15Z
2021-06-24T02:17:03Z,42.805,6.029,13.2999,4.60021,2470.404,2021-6-24T04:18:18Z
2021-06-24T02:20:07Z,42.805,6.029,13.2994,4.60024,2470.427,2021-6-24T04:21:21Z
2021-06-24T02:23:10Z,42.805,6.029,13.3003,4.60042,2470.427,2021-6-24T04:24:24Z
2021-06-24T02:26:13Z,42.805,6.029,13.3008,4.60044,2470.357,2021-6-24T04:27:27Z
2021-06-24T02:29:16Z,42.805,6.029,13.3011,4.60029,2470.404,2021-6-24T04:30:30Z
2021-06-24T02:32:19Z,42.805,6.029,13.3001,4.60031,2470.39,2021-6-24T04:33:33Z
2021-06-24T02:35:22Z,42.805,6.029,13.2996,4.60039,2470.38,2021-6-24T04:36:37Z
2021-06-24T02:38:25Z,42.805,6.029,13.2994,4.60024,2470.413,2021-6-24T04:39:40Z
2021-06-24T02:41:28Z,42.805,6.029,13.2999,4.60033,2470.413,2021-6-24T04:42:43Z
2021-06-24T02:44:32Z,42.805,6.029,13.3004,4.60031,2470.39,2021-6-24T04:45:46Z
2021-06-24T02:47:35Z,42.805,6.029,13.2999,4.60032,2470.427,2021-6-24T04:48:49Z
2021-06-24T02:50:38Z,42.805,6.029,13.2998,4.60032,2470.427,2021-6-24T04:51:52Z
2021-06-24T02:53:41Z,42.805,6.029,13.3000,4.60059,2470.39,2021-6-24T04:54:55Z
2021-06-24T02:56:44Z,42.805,6.029,13.3007,4.60051,2470.39,2021-6-24T04:57:58Z
2021-06-24T02:59:47Z,42.805,6.029,13.2998,4.60036,2470.413,2021-6-24T05:01:02Z
2021-06-24T03:02:50Z,42.805,6.029,13.3004,4.60047,2470.46,2021-6-24T05:04:05Z
2021-06-24T03:05:53Z,42.805,6.029,13.2998,4.60029,2470.45,2021-6-24T05:07:08Z
2021-06-24T03:08:57Z,42.805,6.029,13.3011,4.60029,2470.45,2021-6-24T05:10:11Z
2021-06-24T03:12:00Z,42.805,6.029,13.3005,4.60049,2470.45,2021-6-24T05:13:14Z
2021-06-24T03:15:03Z,42.805,6.029,13.3000,4.60046,2470.45,2021-6-24T05:16:17Z
2021-06-24T03:18:06Z,42.805,6.029,13.3004,4.60044,2470.437,2021-6-24T05:19:20Z
2021-06-24T03:21:09Z,42.805,6.029,13.3005,4.60032,2470.474,2021-6-24T05:22:23Z
2021-06-24T03:24:12Z,42.805,6.029,13.3002,4.60038,2470.437,2021-6-24T05:25:26Z
2021-06-24T03:27:15Z,42.805,6.029,13.3000,4.60037,2470.437,2021-6-24T05:28:30Z
2021-06-24T03:30:18Z,42.805,6.029,13.3003,4.60035,2470.46,2021-6-24T05:31:33Z
2021-06-24T03:33:22Z,42.805,6.029,13.3000,4.60029,2470.45,2021-6-24T05:34:36Z
2021-06-24T03:36:25Z,42.805,6.029,13.3000,4.60035,2470.46,2021-6-24T05:37:39Z
2021-06-24T03:39:28Z,42.805,6.029,13.3007,4.60030,2470.474,2021-6-24T05:40:42Z
2021-06-24T03:42:31Z,42.805,6.029,13.2998,4.60043,2470.46,2021-6-24T05:43:45Z
2021-06-24T03:45:34Z,42.805,6.029,13.3002,4.60043,2470.45,2021-6-24T05:46:48Z
2021-06-24T03:48:37Z,42.805,6.029,13.2998,4.60035,2470.507,2021-6-24T05:49:51Z
2021-06-24T03:51:40Z,42.805,6.029,13.2997,4.60024,2470.46,2021-6-24T05:52:55Z
2021-06-24T03:54:43Z,42.805,6.029,13.2998,4.60029,2470.483,2021-6-24T05:55:58Z
2021-06-24T03:57:47Z,42.805,6.029,13.3006,4.60024,2470.46,2021-6-24T05:59:01Z
2021-06-24T04:00:50Z,42.805,6.029,13.2996,4.60022,2470.483,2021-6-24T06:02:04Z
2021-06-24T04:03:53Z,42.805,6.029,13.3003,4.60035,2470.46,2021-6-24T06:05:07Z
2021-06-24T04:06:56Z,42.805,6.029,13.2998,4.60031,2470.497,2021-6-24T06:08:10Z
2021-06-24T04:09:59Z,42.805,6.029,13.2999,4.60024,2470.507,2021-6-24T06:11:13Z
2021-06-24T04:13:02Z,42.805,6.029,13.2998,4.60023,2470.474,2021-6-24T06:14:16Z
2021-06-24T04:16:05Z,42.805,6.029,13.2995,4.60028,2470.474,2021-6-24T06:17:20Z
2021-06-24T04:19:08Z,42.805,6.029,13.2999,4.60037,2470.483,2021-6-24T06:20:23Z
2021-06-24T04:22:12Z,42.805,6.029,13.2998,4.60030,2470.46,2021-6-24T06:23:26Z
2021-06-24T04:25:15Z,42.805,6.029,13.3004,4.60047,2470.46,2021-6-24T06:26:29Z
2021-06-24T04:28:18Z,42.805,6.029,13.2995,4.60031,2470.46,2021-6-24T06:29:32Z
2021-06-24T04:31:21Z,42.805,6.029,13.3009,4.60016,2470.52,2021-6-24T06:32:35Z
2021-06-24T04:34:24Z,42.805,6.029,13.2998,4.60025,2470.483,2021-6-24T06:35:38Z
2021-06-24T04:37:27Z,42.805,6.029,13.2998,4.60026,2470.46,2021-6-24T06:38:41Z
2021-06-24T04:40:30Z,42.805,6.029,13.2993,4.60026,2470.497,2021-6-24T06:41:45Z
2021-06-24T04:43:33Z,42.805,6.029,13.3000,4.60028,2470.474,2021-6-24T06:44:48Z
2021-06-24T04:46:37Z,42.805,6.029,13.2994,4.60029,2470.52,2021-6-24T06:47:51Z
2021-06-24T04:49:40Z,42.805,6.029,13.3002,4.60046,2470.507,2021-6-24T06:50:54Z
2021-06-24T04:52:43Z,42.805,6.029,13.2997,4.60033,2470.507,2021-6-24T06:53:57Z
2021-06-24T04:55:46Z,42.805,6.029,13.3006,4.60040,2470.52,2021-6-24T06:57:00Z
2021-06-24T04:58:49Z,42.805,6.029,13.2998,4.60028,2470.544,2021-6-24T07:00:03Z
2021-06-24T05:01:52Z,42.805,6.029,13.3014,4.60030,2470.52,2021-6-24T07:03:06Z
2021-06-24T05:04:55Z,42.805,6.029,13.2995,4.60031,2470.507,2021-6-24T07:06:10Z
2021-06-24T05:07:58Z,42.805,6.029,13.2998,4.60015,2470.483,2021-6-24T07:09:13Z
2021-06-24T05:11:01Z,42.805,6.029,13.3013,4.60034,2470.53,2021-6-24T07:12:16Z
2021-06-24T05:14:05Z,42.805,6.029,13.2996,4.60039,2470.553,2021-6-24T07:15:19Z
2021-06-24T05:17:08Z,42.805,6.029,13.2996,4.60025,2470.52,2021-6-24T07:18:22Z
2021-06-24T05:20:11Z,42.805,6.029,13.2997,4.60039,2470.507,2021-6-24T07:21:25Z
2021-06-24T05:23:14Z,42.805,6.029,13.2999,4.60030,2470.53,2021-6-24T07:24:28Z
2021-06-24T05:26:17Z,42.805,6.029,13.3006,4.60033,2470.507,2021-6-24T07:27:31Z
2021-06-24T05:29:20Z,42.805,6.029,13.3009,4.60046,2470.553,2021-6-24T07:30:35Z
2021-06-24T05:32:23Z,42.805,6.029,13.3006,4.60052,2470.544,2021-6-24T07:33:38Z
2021-06-24T05:35:26Z,42.805,6.029,13.3000,4.60023,2470.544,2021-6-24T07:36:41Z
2021-06-24T05:38:30Z,42.805,6.029,13.2999,4.60040,2470.53,2021-6-24T07:39:44Z
2021-06-24T05:41:33Z,42.805,6.029,13.3000,4.60052,2470.553,2021-6-24T07:42:47Z
2021-06-24T05:44:36Z,42.805,6.029,13.2998,4.60031,2470.53,2021-6-24T07:45:50Z
2021-06-24T05:47:39Z,42.805,6.029,13.3001,4.60046,2470.544,2021-6-24T07:48:53Z
2021-06-24T05:50:42Z,42.805,6.029,13.2996,4.60040,2470.544,2021-6-24T07:51:56Z
2021-06-24T05:53:45Z,42.805,6.029,13.2999,4.60052,2470.53,2021-6-24T07:55:00Z
2021-06-24T05:56:48Z,42.805,6.029,13.3004,4.60039,2470.544,2021-6-24T07:58:03Z
2021-06-24T05:59:51Z,42.805,6.029,13.2999,4.60039,2470.507,2021-6-24T08:01:06Z
2021-06-24T06:02:55Z,42.805,6.029,13.3006,4.60043,2470.544,2021-6-24T08:04:09Z
2021-06-24T06:05:58Z,42.805,6.029,13.3004,4.60044,2470.53,2021-6-24T08:07:12Z
2021-06-24T06:09:01Z,42.805,6.029,13.3019,4.60066,2470.52,2021-6-24T08:10:15Z
2021-06-24T06:12:04Z,42.805,6.029,13.3014,4.60016,2470.544,2021-6-24T08:13:18Z
2021-06-24T06:15:07Z,42.805,6.029,13.3004,4.60048,2470.53,2021-6-24T08:16:21Z
2021-06-24T06:18:10Z,42.805,6.029,13.3006,4.60044,2470.507,2021-6-24T08:19:24Z
2021-06-24T06:21:13Z,42.805,6.029,13.3005,4.60041,2470.553,2021-6-24T08:22:28Z
2021-06-24T06:24:16Z,42.805,6.029,13.3006,4.60045,2470.52,2021-6-24T08:25:31Z
2021-06-24T06:27:20Z,42.805,6.029,13.3019,4.60027,2470.507,2021-6-24T08:28:34Z
2021-06-24T06:30:23Z,42.805,6.029,13.2995,4.60031,2470.483,2021-6-24T08:31:37Z
2021-06-24T06:33:26Z,42.805,6.029,13.3006,4.60049,2470.53,2021-6-24T08:34:40Z
2021-06-24T06:36:29Z,42.805,6.029,13.2995,4.60048,2470.553,2021-6-24T08:37:43Z
2021-06-24T06:39:32Z,42.805,6.029,13.2997,4.60030,2470.52,2021-6-24T08:40:46Z
2021-06-24T06:42:35Z,42.805,6.029,13.2998,4.60049,2470.53,2021-6-24T08:43:49Z
2021-06-24T06:45:38Z,42.805,6.029,13.2996,4.60033,2470.544,2021-6-24T08:46:53Z
2021-06-24T06:48:41Z,42.805,6.029,13.3007,4.60045,2470.52,2021-6-24T08:49:56Z
2021-06-24T06:51:45Z,42.805,6.029,13.3000,4.60039,2470.483,2021-6-24T08:52:59Z
2021-06-24T06:54:48Z,42.805,6.029,13.3011,4.60024,2470.52,2021-6-24T08:56:02Z
2021-06-24T06:57:51Z,42.805,6.029,13.3009,4.60048,2470.544,2021-6-24T08:59:05Z
2021-06-24T07:00:54Z,42.805,6.029,13.3004,4.60073,2470.53,2021-6-24T09:02:08Z
2021-06-24T07:03:57Z,42.805,6.029,13.3006,4.60055,2470.544,2021-6-24T09:05:11Z
2021-06-24T07:07:00Z,42.805,6.029,13.3011,4.60069,2470.544,2021-6-24T09:08:14Z
2021-06-24T07:10:03Z,42.805,6.029,13.3010,4.60062,2470.507,2021-6-24T09:11:18Z
2021-06-24T07:13:06Z,42.805,6.029,13.3011,4.60082,2470.553,2021-6-24T09:14:21Z
2021-06-24T07:16:10Z,42.805,6.029,13.3015,4.60075,2470.507,2021-6-24T09:17:24Z
2021-06-24T07:19:13Z,42.805,6.029,13.3006,4.60063,2470.483,2021-6-24T09:20:27Z
2021-06-24T07:22:16Z,42.805,6.029,13.3017,4.60076,2470.483,2021-6-24T09:23:30Z
2021-06-24T07:25:19Z,42.805,6.029,13.3009,4.60064,2470.52,2021-6-24T09:26:33Z
2021-06-24T07:28:22Z,42.805,6.029,13.3028,4.60072,2470.483,2021-6-24T09:29:36Z
2021-06-24T07:31:25Z,42.805,6.029,13.3013,4.60046,2470.507,2021-6-24T09:32:39Z
2021-06-24T07:34:28Z,42.805,6.029,13.3011,4.60069,2470.483,2021-6-24T09:35:43Z
2021-06-24T07:37:31Z,42.805,6.029,13.3011,4.60052,2470.507,2021-6-24T09:38:46Z
2021-06-24T07:40:35Z,42.805,6.029,13.3014,4.60045,2470.483,2021-6-24T09:41:49Z
2021-06-24T07:43:38Z,42.805,6.029,13.3011,4.60041,2470.474,2021-6-24T09:44:52Z
2021-06-24T07:46:41Z,42.805,6.029,13.3005,4.60064,2470.497,2021-6-24T09:47:55Z
2021-06-24T07:49:44Z,42.805,6.029,13.3010,4.60057,2470.507,2021-6-24T09:50:58Z
2021-06-24T07:52:47Z,42.805,6.029,13.3006,4.60057,2470.52,2021-6-24T09:54:01Z
2021-06-24T07:55:50Z,42.805,6.029,13.3008,4.60068,2470.497,2021-6-24T09:57:04Z
2021-06-24T07:58:53Z,42.805,6.029,13.3011,4.60054,2470.53,2021-6-24T10:00:08Z
2021-06-24T08:01:56Z,42.805,6.029,13.3007,4.60060,2470.52,2021-6-24T10:03:11Z
2021-06-24T08:05:00Z,42.805,6.029,13.3003,4.60054,2470.474,2021-6-24T10:06:14Z
2021-06-24T08:08:03Z,42.805,6.029,13.3004,4.60057,2470.474,2021-6-24T10:09:17Z
2021-06-24T08:11:06Z,42.805,6.029,13.2998,4.60059,2470.497,2021-6-24T10:12:20Z
2021-06-24T08:14:09Z,42.805,6.029,13.3002,4.60059,2470.497,2021-6-24T10:15:23Z
2021-06-24T08:17:12Z,42.805,6.029,13.3016,4.60074,2470.474,2021-6-24T10:18:26Z
2021-06-24T08:20:15Z,42.805,6.029,13.3014,4.60088,2470.483,2021-6-24T10:21:29Z
2021-06-24T08:23:18Z,42.805,6.029,13.3015,4.60108,2470.474,2021-6-24T10:24:33Z
2021-06-24T08:26:21Z,42.805,6.029,13.3015,4.60059,2470.483,2021-6-24T10:27:36Z
2021-06-24T08:29:25Z,42.805,6.029,13.3012,4.60054,2470.474,2021-6-24T10:30:39Z
2021-06-24T08:32:28Z,42.805,6.029,13.3022,4.60067,2470.437,2021-6-24T10:33:42Z
2021-06-24T08:35:31Z,42.805,6.029,13.3015,4.60059,2470.474,2021-6-24T10:36:45Z
2021-06-24T08:38:34Z,42.805,6.029,13.3021,4.60034,2470.46,2021-6-24T10:39:48Z
2021-06-24T08:41:37Z,42.805,6.029,13.3006,4.60059,2470.474,2021-6-24T10:42:51Z
2021-06-24T08:44:40Z,42.805,6.029,13.3021,4.60053,2470.474,2021-6-24T10:45:54Z
2021-06-24T08:47:43Z,42.805,6.029,13.3014,4.60070,2470.46,2021-6-24T10:48:58Z
2021-06-24T08:50:46Z,42.805,6.029,13.3019,4.60068,2470.474,2021-6-24T10:52:01Z
2021-06-24T08:53:50Z,42.805,6.029,13.3006,4.60054,2470.45,2021-6-24T10:55:04Z
2021-06-24T08:56:53Z,42.805,6.029,13.3004,4.60037,2470.437,2021-6-24T10:58:07Z
2021-06-24T08:59:56Z,42.805,6.029,13.3024,4.60039,2470.413,2021-6-24T11:01:10Z
2021-06-24T09:02:59Z,42.805,6.029,13.3015,4.60063,2470.413,2021-6-24T11:04:13Z
2021-06-24T09:06:02Z,42.805,6.029,13.3029,4.60026,2470.404,2021-6-24T11:07:16Z
2021-06-24T09:09:05Z,42.805,6.029,13.3017,4.60049,2470.45,2021-6-24T11:10:20Z
2021-06-24T09:12:08Z,42.805,6.029,13.3011,4.60072,2470.413,2021-6-24T11:13:23Z
2021-06-24T09:15:11Z,42.805,6.029,13.3026,4.60064,2470.413,2021-6-24T11:16:26Z
2021-06-24T09:18:15Z,42.805,6.029,13.3038,4.60044,2470.474,2021-6-24T11:19:29Z
2021-06-24T09:21:18Z,42.805,6.029,13.3015,4.60050,2470.413,2021-6-24T11:22:32Z
2021-06-24T09:24:21Z,42.805,6.029,13.3015,4.60049,2470.413,2021-6-24T11:25:35Z
2021-06-24T09:27:24Z,42.805,6.029,13.3006,4.60059,2470.413,2021-6-24T11:28:38Z
2021-06-24T09:30:27Z,42.805,6.029,13.3004,4.60075,2470.45,2021-6-24T11:31:41Z
2021-06-24T09:33:30Z,42.805,6.029,13.3030,4.60069,2470.497,2021-6-24T11:34:45Z
2021-06-24T09:36:33Z,42.805,6.029,13.3010,4.60069,2470.427,2021-6-24T11:37:48Z
2021-06-24T09:39:37Z,42.805,6.029,13.3017,4.60054,2470.413,2021-6-24T11:40:51Z
2021-06-24T09:42:40Z,42.805,6.029,13.3026,4.60055,2470.413,2021-6-24T11:43:54Z
2021-06-24T09:45:43Z,42.805,6.029,13.3035,4.60091,2470.413,2021-6-24T11:46:57Z
2021-06-24T09:48:46Z,42.805,6.029,13.3036,4.60056,2470.39,2021-6-24T11:50:00Z
2021-06-24T09:51:49Z,42.805,6.029,13.3038,4.60031,2470.404,2021-6-24T11:53:03Z
2021-06-24T09:54:52Z,42.805,6.029,13.3026,4.60042,2470.427,2021-6-24T11:56:06Z
2021-06-24T09:57:55Z,42.805,6.029,13.3020,4.60056,2470.39,2021-6-24T11:59:10Z
2021-06-24T10:00:58Z,42.805,6.029,13.3031,4.60021,2470.45,2021-6-24T12:02:13Z
2021-06-24T10:04:02Z,42.805,6.029,13.3028,4.60026,2470.413,2021-6-24T12:05:16Z
2021-06-24T10:07:05Z,42.805,6.029,13.2990,4.60009,2470.39,2021-6-24T12:08:19Z
2021-06-24T10:10:08Z,42.805,6.029,13.3011,4.60016,2470.404,2021-6-24T12:11:22Z
2021-06-24T10:13:11Z,42.805,6.029,13.3027,4.60035,2470.39,2021-6-24T12:14:25Z
2021-06-24T10:16:14Z,42.805,6.029,13.3010,4.60011,2470.39,2021-6-24T12:17:28Z
2021-06-24T10:19:17Z,42.805,6.029,13.3019,4.60031,2470.404,2021-6-24T12:20:31Z
2021-06-24T10:22:20Z,42.805,6.029,13.3020,4.60032,2470.45,2021-6-24T12:23:35Z
2021-06-24T10:25:23Z,42.805,6.029,13.3038,4.60049,2470.39,2021-6-24T12:26:38Z
2021-06-24T10:28:27Z,42.805,6.029,13.3013,4.60032,2470.404,2021-6-24T12:29:41Z
2021-06-24T10:31:30Z,42.805,6.029,13.3047,4.60019,2470.404,2021-6-24T12:32:44Z
2021-06-24T10:34:33Z,42.805,6.029,13.3018,4.60029,2470.39,2021-6-24T12:35:47Z
2021-06-24T10:37:36Z,42.805,6.029,13.3008,4.60014,2470.38,2021-6-24T12:38:50Z
2021-06-24T10:40:39Z,42.805,6.029,13.2991,4.60003,2470.404,2021-6-24T12:41:53Z
2021-06-24T10:43:42Z,42.805,6.029,13.2991,4.60003,2470.366,2021-6-24T12:44:56Z
2021-06-24T10:46:45Z,42.805,6.029,13.2993,4.60003,2470.39,2021-6-24T12:48:00Z
2021-06-24T10:49:48Z,42.805,6.029,13.2987,4.60004,2470.39,2021-6-24T12:51:03Z
2021-06-24T10:52:52Z,42.805,6.029,13.2990,4.59999,2470.38,2021-6-24T12:54:06Z
2021-06-24T10:55:55Z,42.805,6.029,13.2990,4.60001,2470.39,2021-6-24T12:57:09Z
2021-06-24T10:58:58Z,42.805,6.029,13.2989,4.59999,2470.39,2021-6-24T13:00:12Z
2021-06-24T11:02:01Z,42.805,6.029,13.2995,4.60001,2470.366,2021-6-24T13:03:15Z
2021-06-24T11:05:04Z,42.805,6.029,13.2992,4.60002,2470.357,2021-6-24T13:06:18Z
2021-06-24T11:08:07Z,42.805,6.029,13.2988,4.59999,2470.39,2021-6-24T13:09:21Z
2021-06-24T11:11:10Z,42.805,6.029,13.2988,4.60001,2470.38,2021-6-24T13:12:25Z
2021-06-24T11:14:13Z,42.805,6.029,13.2990,4.60005,2470.376,2021-6-24T13:15:28Z
2021-06-24T11:17:17Z,42.805,6.029,13.2996,4.60007,2470.366,2021-6-24T13:18:31Z
2021-06-24T11:20:20Z,42.805,6.029,13.2995,4.60003,2470.357,2021-6-24T13:21:34Z
2021-06-24T11:23:23Z,42.805,6.029,13.2993,4.60005,2470.343,2021-6-24T13:24:37Z
2021-06-24T11:26:26Z,42.805,6.029,13.2990,4.60004,2470.366,2021-6-24T13:27:40Z
2021-06-24T11:29:29Z,42.805,6.029,13.2994,4.60003,2470.32,2021-6-24T13:30:43Z
2021-06-24T11:32:32Z,42.805,6.029,13.2990,4.60003,2470.343,2021-6-24T13:33:47Z
2021-06-24T11:35:35Z,42.805,6.029,13.2991,4.60001,2470.343,2021-6-24T13:36:50Z
2021-06-24T11:38:38Z,42.805,6.029,13.2998,4.60006,2470.357,2021-6-24T13:39:53Z
2021-06-24T11:41:42Z,42.805,6.029,13.2996,4.60017,2470.343,2021-6-24T13:42:56Z
2021-06-24T11:44:45Z,42.805,6.029,13.2995,4.60006,2470.366,2021-6-24T13:45:59Z
2021-06-24T11:47:48Z,42.805,6.029,13.3002,4.60006,2470.32,2021-6-24T13:49:02Z
2021-06-24T11:50:51Z,42.805,6.029,13.2993,4.60008,2470.334,2021-6-24T13:52:05Z
2021-06-24T11:53:54Z,42.805,6.029,13.2990,4.60002,2470.32,2021-6-24T13:55:08Z
2021-06-24T11:56:57Z,42.805,6.029,13.2991,4.60001,2470.343,2021-6-24T13:58:12Z
2021-06-24T12:00:00Z,42.805,6.029,13.3000,4.60004,2470.32,2021-6-24T14:01:15Z
2021-06-24T12:03:03Z,42.805,6.029,13.3010,4.60033,2470.334,2021-6-24T14:04:18Z
2021-06-24T12:06:07Z,42.805,6.029,13.3024,4.60031,2470.31,2021-6-24T14:07:21Z
2021-06-24T12:09:10Z,42.805,6.029,13.3026,4.60031,2470.343,2021-6-24T14:10:24Z
2021-06-24T12:12:13Z,42.805,6.029,13.3020,4.60042,2470.343,2021-6-24T14:13:27Z
2021-06-24T12:15:16Z,42.805,6.029,13.3010,4.60054,2470.334,2021-6-24T14:16:30Z
2021-06-24T12:18:19Z,42.805,6.029,13.3009,4.60031,2470.334,2021-6-24T14:19:33Z
2021-06-24T12:21:22Z,42.805,6.029,13.3022,4.60057,2470.343,2021-6-24T14:22:37Z
2021-06-24T12:24:25Z,42.805,6.029,13.3021,4.60043,2470.357,2021-6-24T14:25:40Z
2021-06-24T12:27:29Z,42.805,6.029,13.3028,4.60067,2470.334,2021-6-24T14:28:43Z
2021-06-24T12:30:32Z,42.805,6.029,13.3018,4.60018,2470.297,2021-6-24T14:31:46Z
2021-06-24T12:33:35Z,42.805,6.029,13.3019,4.60062,2470.334,2021-6-24T14:34:49Z
2021-06-24T12:36:38Z,42.805,6.029,13.3024,4.60057,2470.31,2021-6-24T14:37:52Z
2021-06-24T12:39:41Z,42.805,6.029,13.3017,4.60052,2470.32,2021-6-24T14:40:55Z
2021-06-24T12:42:44Z,42.805,6.029,13.3015,4.60088,2470.297,2021-6-24T14:43:58Z
2021-06-24T12:45:47Z,42.805,6.029,13.3010,4.60082,2470.31,2021-6-24T14:47:02Z
2021-06-24T12:48:50Z,42.805,6.029,13.3010,4.60092,2470.334,2021-6-24T14:50:05Z
2021-06-24T12:51:54Z,42.805,6.029,13.3030,4.60040,2470.283,2021-6-24T14:53:08Z
2021-06-24T12:54:57Z,42.805,6.029,13.3021,4.60043,2470.297,2021-6-24T14:56:11Z
2021-06-24T12:58:00Z,42.805,6.029,13.3024,4.60036,2470.334,2021-6-24T14:59:14Z
2021-06-24T13:01:03Z,42.805,6.029,13.3031,4.60032,2470.334,2021-6-24T15:02:17Z
2021-06-24T13:04:06Z,42.805,6.029,13.3023,4.60037,2470.297,2021-6-24T15:05:20Z
2021-06-24T13:07:09Z,42.805,6.029,13.3021,4.60037,2470.297,2021-6-24T15:08:23Z
2021-06-24T13:10:12Z,42.805,6.029,13.3012,4.60062,2470.343,2021-6-24T15:11:27Z
2021-06-24T13:13:15Z,42.805,6.029,13.3021,4.60058,2470.31,2021-6-24T15:14:30Z
2021-06-24T13:16:19Z,42.805,6.029,13.3026,4.60031,2470.32,2021-6-24T15:17:33Z
2021-06-24T13:19:22Z,42.805,6.029,13.3026,4.60027,2470.334,2021-6-24T15:20:36Z
2021-06-24T13:22:25Z,42.805,6.029,13.3021,4.60030,2470.334,2021-6-24T15:23:39Z
2021-06-24T13:25:28Z,42.805,6.029,13.3024,4.60025,2470.297,2021-6-24T15:26:42Z
2021-06-24T13:28:31Z,42.805,6.029,13.3024,4.60034,2470.273,2021-6-24T15:29:45Z
2021-06-24T13:31:34Z,42.805,6.029,13.3017,4.60062,2470.32,2021-6-24T15:32:48Z
2021-06-24T13:34:37Z,42.805,6.029,13.3024,4.60049,2470.32,2021-6-24T15:35:52Z
2021-06-24T13:37:40Z,42.805,6.029,13.3030,4.60058,2470.32,2021-6-24T15:38:55Z
2021-06-24T13:40:44Z,42.805,6.029,13.3028,4.60031,2470.32,2021-6-24T15:41:58Z
2021-06-24T13:43:47Z,42.805,6.029,13.3017,4.60046,2470.32,2021-6-24T15:45:01Z
2021-06-24T13:46:50Z,42.805,6.029,13.3022,4.60044,2470.33,2021-6-24T15:48:04Z
2021-06-24T13:49:53Z,42.805,6.029,13.3024,4.60060,2470.273,2021-6-24T15:51:07Z
2021-06-24T13:52:56Z,42.805,6.029,13.3027,4.60054,2470.297,2021-6-24T15:54:10Z
2021-06-24T13:55:59Z,42.805,6.029,13.3031,4.60035,2470.297,2021-6-24T15:57:13Z
2021-06-24T13:59:02Z,42.805,6.029,13.3028,4.60035,2470.297,2021-6-24T16:00:17Z
2021-06-24T14:02:05Z,42.805,6.029,13.3025,4.60056,2470.357,2021-6-24T16:03:20Z
2021-06-24T14:05:09Z,42.805,6.029,13.3015,4.60031,2470.32,2021-6-24T16:06:23Z
2021-06-24T14:08:12Z,42.805,6.029,13.3004,4.60019,2470.31,2021-6-24T16:09:26Z
2021-06-24T14:11:15Z,42.805,6.029,13.3002,4.60016,2470.334,2021-6-24T16:12:29Z
2021-06-24T14:14:18Z,42.805,6.029,13.3026,4.60050,2470.31,2021-6-24T16:15:32Z
2021-06-24T14:17:21Z,42.805,6.029,13.3024,4.60060,2470.357,2021-6-24T16:18:35Z
2021-06-24T14:20:24Z,42.805,6.029,13.3032,4.60049,2470.334,2021-6-24T16:21:39Z
2021-06-24T14:23:27Z,42.805,6.029,13.2991,4.60015,2470.32,2021-6-24T16:24:42Z
2021-06-24T14:26:31Z,42.805,6.029,13.2993,4.60011,2470.32,2021-6-24T16:27:45Z
2021-06-24T14:29:34Z,42.805,6.029,13.3006,4.60033,2470.357,2021-6-24T16:30:48Z
2021-06-24T14:32:37Z,42.805,6.029,13.3020,4.60033,2470.334,2021-6-24T16:33:51Z
2021-06-24T14:35:40Z,42.805,6.029,13.3010,4.60011,2470.32,2021-6-24T16:36:54Z
2021-06-24T14:38:43Z,42.805,6.029,13.3011,4.60001,2470.334,2021-6-24T16:39:57Z
2021-06-24T14:41:46Z,42.805,6.029,13.2996,4.60014,2470.343,2021-6-24T16:43:00Z
2021-06-24T14:44:49Z,42.805,6.029,13.3029,4.60028,2470.343,2021-6-24T16:46:04Z
2021-06-24T14:47:52Z,42.805,6.029,13.3013,4.60024,2470.357,2021-6-24T16:49:07Z
2021-06-24T14:50:56Z,42.805,6.029,13.3019,4.60018,2470.32,2021-6-24T16:52:10Z
2021-06-24T14:53:59Z,42.805,6.029,13.3012,4.60021,2470.343,2021-6-24T16:55:13Z
2021-06-24T14:57:02Z,42.805,6.029,13.2995,4.60009,2470.357,2021-6-24T16:58:16Z
2021-06-24T15:00:05Z,42.805,6.029,13.3006,4.60020,2470.357,2021-6-24T17:01:19Z
2021-06-24T15:03:08Z,42.805,6.029,13.3022,4.60021,2470.38,2021-6-24T17:04:22Z
2021-06-24T15:06:11Z,42.805,6.029,13.3000,4.60001,2470.31,2021-6-24T17:07:25Z
2021-06-24T15:09:14Z,42.805,6.029,13.3004,4.60039,2470.357,2021-6-24T17:10:29Z
2021-06-24T15:12:17Z,42.805,6.029,13.3006,4.60019,2470.343,2021-6-24T17:13:32Z
2021-06-24T15:15:21Z,42.805,6.029,13.3007,4.60001,2470.343,2021-6-24T17:16:35Z